Year,Month,Day,Hour,Minute,Value (Times are PST for temperature in C)
2011,11,11,00,00,6.80
2011,11,11,00,01,6.70
2011,11,11,00,02,6.70
2011,11,11,00,03,6.70
2011,11,11,00,04,6.70
2011,11,11,00,05,6.60
2011,11,11,00,06,6.60
2011,11,11,00,07,6.60
2011,11,11,00,08,6.60
2011,11,11,00,09,6.60
2011,11,11,00,10,6.60
2011,11,11,00,11,6.60
2011,11,11,00,12,6.60
2011,11,11,00,13,6.60
2011,11,11,00,14,6.60
2011,11,11,00,15,6.60
2011,11,11,00,16,6.60
2011,11,11,00,17,6.60
2011,11,11,00,18,6.60
2011,11,11,00,19,6.60
2011,11,11,00,20,6.60
2011,11,11,00,21,6.60
2011,11,11,00,22,6.60
2011,11,11,00,23,6.60
2011,11,11,00,24,6.60
2011,11,11,00,25,6.60
2011,11,11,00,26,6.60
2011,11,11,00,27,6.60
2011,11,11,00,28,6.60
2011,11,11,00,29,6.60
2011,11,11,00,30,6.60
2011,11,11,00,31,6.60
2011,11,11,00,32,6.60
2011,11,11,00,33,6.60
2011,11,11,00,34,6.60
2011,11,11,00,35,6.70
2011,11,11,00,36,6.70
2011,11,11,00,37,6.70
2011,11,11,00,38,6.70
2011,11,11,00,39,6.70
2011,11,11,00,40,6.70
2011,11,11,00,41,6.70
2011,11,11,00,42,6.70
2011,11,11,00,43,6.70
2011,11,11,00,44,6.70
2011,11,11,00,45,6.70
2011,11,11,00,46,6.70
2011,11,11,00,47,6.70
2011,11,11,00,48,6.70
2011,11,11,00,49,6.70
2011,11,11,00,50,6.70
2011,11,11,00,51,6.70
2011,11,11,00,52,6.70
2011,11,11,00,53,6.70
2011,11,11,00,54,6.70
2011,11,11,00,55,6.70
2011,11,11,00,56,6.70
2011,11,11,00,57,6.80
2011,11,11,00,58,6.80
2011,11,11,00,59,6.80
2011,11,11,01,00,6.80
2011,11,11,01,01,6.80
2011,11,11,01,02,6.80
2011,11,11,01,03,6.80
2011,11,11,01,04,6.80
2011,11,11,01,05,6.80
2011,11,11,01,06,6.80
2011,11,11,01,07,6.80
2011,11,11,01,08,6.80
2011,11,11,01,09,6.80
2011,11,11,01,10,6.80
2011,11,11,01,11,6.80
2011,11,11,01,12,6.80
2011,11,11,01,13,6.80
2011,11,11,01,14,6.90
2011,11,11,01,15,6.90
2011,11,11,01,16,6.90
2011,11,11,01,17,6.90
2011,11,11,01,18,6.90
2011,11,11,01,19,6.90
2011,11,11,01,20,6.90
2011,11,11,01,21,6.90
2011,11,11,01,22,6.90
2011,11,11,01,23,6.90
2011,11,11,01,24,6.90
2011,11,11,01,25,6.90
2011,11,11,01,26,6.90
2011,11,11,01,27,6.90
2011,11,11,01,28,6.90
2011,11,11,01,29,6.90
2011,11,11,01,30,6.90
2011,11,11,01,31,6.90
2011,11,11,01,32,6.90
2011,11,11,01,33,6.90
2011,11,11,01,34,6.90
2011,11,11,01,35,6.90
2011,11,11,01,36,6.90
2011,11,11,01,37,6.90
2011,11,11,01,38,6.90
2011,11,11,01,39,6.90
2011,11,11,01,40,6.90
2011,11,11,01,41,6.90
2011,11,11,01,42,6.90
2011,11,11,01,43,6.90
2011,11,11,01,44,6.90
2011,11,11,01,45,6.90
2011,11,11,01,46,6.90
2011,11,11,01,47,6.90
2011,11,11,01,48,6.90
2011,11,11,01,49,6.90
2011,11,11,01,50,6.90
2011,11,11,01,51,6.90
2011,11,11,01,52,6.90
2011,11,11,01,53,6.90
2011,11,11,01,54,6.90
2011,11,11,01,55,6.90
2011,11,11,01,56,6.90
2011,11,11,01,57,6.90
2011,11,11,01,58,6.90
2011,11,11,01,59,6.90
2011,11,11,02,00,7.00
2011,11,11,02,01,7.00
2011,11,11,02,02,7.00
2011,11,11,02,03,7.00
2011,11,11,02,04,7.00
2011,11,11,02,05,7.10
2011,11,11,02,06,7.10
2011,11,11,02,07,7.10
2011,11,11,02,08,7.10
2011,11,11,02,09,7.10
2011,11,11,02,10,7.10
2011,11,11,02,11,7.10
2011,11,11,02,12,7.10
2011,11,11,02,13,7.10
2011,11,11,02,14,7.10
2011,11,11,02,15,7.10
2011,11,11,02,16,7.10
2011,11,11,02,17,7.10
2011,11,11,02,18,7.10
2011,11,11,02,19,7.10
2011,11,11,02,20,7.10
2011,11,11,02,21,7.10
2011,11,11,02,22,7.10
2011,11,11,02,23,7.10
2011,11,11,02,24,7.10
2011,11,11,02,25,7.10
2011,11,11,02,26,7.10
2011,11,11,02,27,7.10
2011,11,11,02,28,7.10
2011,11,11,02,29,7.10
2011,11,11,02,30,7.10
2011,11,11,02,31,7.10
2011,11,11,02,32,7.10
2011,11,11,02,33,7.00
2011,11,11,02,34,7.00
2011,11,11,02,35,7.00
2011,11,11,02,36,7.00
2011,11,11,02,37,7.10
2011,11,11,02,38,7.00
2011,11,11,02,39,7.10
2011,11,11,02,40,7.10
2011,11,11,02,41,7.10
2011,11,11,02,42,7.10
2011,11,11,02,43,7.10
2011,11,11,02,44,7.10
2011,11,11,02,45,7.10
2011,11,11,02,46,7.10
2011,11,11,02,47,7.10
2011,11,11,02,48,7.10
2011,11,11,02,49,7.10
2011,11,11,02,50,7.10
2011,11,11,02,51,7.10
2011,11,11,02,52,7.10
2011,11,11,02,53,7.10
2011,11,11,02,54,7.10
2011,11,11,02,55,7.00
2011,11,11,02,56,7.10
2011,11,11,02,57,7.00
2011,11,11,02,58,7.00
2011,11,11,02,59,7.00
2011,11,11,03,00,7.10
2011,11,11,03,01,7.10
2011,11,11,03,02,7.10
2011,11,11,03,03,7.10
2011,11,11,03,04,7.10
2011,11,11,03,05,7.10
2011,11,11,03,06,7.10
2011,11,11,03,07,7.10
2011,11,11,03,08,7.10
2011,11,11,03,09,7.10
2011,11,11,03,10,7.10
2011,11,11,03,11,7.10
2011,11,11,03,12,7.10
2011,11,11,03,13,7.10
2011,11,11,03,14,7.10
2011,11,11,03,15,7.10
2011,11,11,03,16,7.10
2011,11,11,03,17,7.10
2011,11,11,03,18,7.10
2011,11,11,03,19,7.10
2011,11,11,03,20,7.10
2011,11,11,03,21,7.10
2011,11,11,03,22,7.10
2011,11,11,03,23,7.10
2011,11,11,03,24,7.10
2011,11,11,03,25,7.10
2011,11,11,03,26,7.10
2011,11,11,03,27,7.20
2011,11,11,03,28,7.20
2011,11,11,03,29,7.20
2011,11,11,03,30,7.20
2011,11,11,03,31,7.20
2011,11,11,03,32,7.10
2011,11,11,03,33,7.20
2011,11,11,03,34,7.20
2011,11,11,03,35,7.20
2011,11,11,03,36,7.20
2011,11,11,03,37,7.20
2011,11,11,03,38,7.20
2011,11,11,03,39,7.20
2011,11,11,03,40,7.20
2011,11,11,03,41,7.20
2011,11,11,03,42,7.20
2011,11,11,03,43,7.20
2011,11,11,03,44,7.20
2011,11,11,03,45,7.20
2011,11,11,03,46,7.20
2011,11,11,03,47,7.20
2011,11,11,03,48,7.20
2011,11,11,03,49,7.20
2011,11,11,03,50,7.20
2011,11,11,03,51,7.20
2011,11,11,03,52,7.20
2011,11,11,03,53,7.20
2011,11,11,03,54,7.20
2011,11,11,03,55,7.20
2011,11,11,03,56,7.20
2011,11,11,03,57,7.20
2011,11,11,03,58,7.20
2011,11,11,03,59,7.20
2011,11,11,04,00,7.20
2011,11,11,04,01,7.20
2011,11,11,04,02,7.20
2011,11,11,04,03,7.20
2011,11,11,04,04,7.20
2011,11,11,04,05,7.20
2011,11,11,04,06,7.20
2011,11,11,04,07,7.20
2011,11,11,04,08,7.20
2011,11,11,04,09,7.20
2011,11,11,04,10,7.10
2011,11,11,04,11,7.10
2011,11,11,04,12,7.10
2011,11,11,04,13,7.10
2011,11,11,04,14,7.10
2011,11,11,04,15,7.10
2011,11,11,04,16,7.10
2011,11,11,04,17,7.10
2011,11,11,04,18,7.10
2011,11,11,04,19,7.10
2011,11,11,04,20,7.10
2011,11,11,04,21,7.10
2011,11,11,04,22,7.10
2011,11,11,04,23,7.10
2011,11,11,04,24,7.10
2011,11,11,04,25,7.10
2011,11,11,04,26,7.10
2011,11,11,04,27,7.10
2011,11,11,04,28,7.10
2011,11,11,04,29,7.10
2011,11,11,04,30,7.10
2011,11,11,04,31,7.10
2011,11,11,04,32,7.10
2011,11,11,04,33,7.10
2011,11,11,04,34,7.20
2011,11,11,04,35,7.20
2011,11,11,04,36,7.20
2011,11,11,04,37,7.20
2011,11,11,04,38,7.20
2011,11,11,04,39,7.20
2011,11,11,04,40,7.20
2011,11,11,04,41,7.20
2011,11,11,04,42,7.20
2011,11,11,04,43,7.20
2011,11,11,04,44,7.20
2011,11,11,04,45,7.20
2011,11,11,04,46,7.20
2011,11,11,04,47,7.20
2011,11,11,04,48,7.20
2011,11,11,04,49,7.20
2011,11,11,04,50,7.20
2011,11,11,04,51,7.20
2011,11,11,04,52,7.20
2011,11,11,04,53,7.20
2011,11,11,04,54,7.20
2011,11,11,04,55,7.20
2011,11,11,04,56,7.20
2011,11,11,04,57,7.20
2011,11,11,04,58,7.20
2011,11,11,04,59,7.20
2011,11,11,05,00,7.20
2011,11,11,05,01,7.20
2011,11,11,05,02,7.20
2011,11,11,05,03,7.20
2011,11,11,05,04,7.20
2011,11,11,05,05,7.20
2011,11,11,05,06,7.20
2011,11,11,05,07,7.20
2011,11,11,05,08,7.20
2011,11,11,05,09,7.20
2011,11,11,05,10,7.20
2011,11,11,05,11,7.10
2011,11,11,05,12,7.10
2011,11,11,05,13,7.10
2011,11,11,05,14,7.10
2011,11,11,05,15,7.10
2011,11,11,05,16,7.10
2011,11,11,05,17,7.10
2011,11,11,05,18,7.10
2011,11,11,05,19,7.10
2011,11,11,05,20,7.10
2011,11,11,05,21,7.10
2011,11,11,05,22,7.10
2011,11,11,05,23,7.10
2011,11,11,05,24,7.10
2011,11,11,05,25,7.10
2011,11,11,05,26,7.10
2011,11,11,05,27,7.10
2011,11,11,05,28,7.10
2011,11,11,05,29,7.10
2011,11,11,05,30,7.10
2011,11,11,05,31,7.10
2011,11,11,05,32,7.10
2011,11,11,05,33,7.10
2011,11,11,05,34,7.10
2011,11,11,05,35,7.10
2011,11,11,05,36,7.00
2011,11,11,05,37,7.00
2011,11,11,05,38,7.10
2011,11,11,05,39,7.10
2011,11,11,05,40,7.10
2011,11,11,05,41,7.10
2011,11,11,05,42,7.10
2011,11,11,05,43,7.10
2011,11,11,05,44,7.10
2011,11,11,05,45,7.10
2011,11,11,05,46,7.10
2011,11,11,05,47,7.10
2011,11,11,05,48,7.10
2011,11,11,05,49,7.10
2011,11,11,05,50,7.20
2011,11,11,05,51,7.20
2011,11,11,05,52,7.20
2011,11,11,05,53,7.20
2011,11,11,05,54,7.20
2011,11,11,05,55,7.20
2011,11,11,05,56,7.20
2011,11,11,05,57,7.20
2011,11,11,05,58,7.20
2011,11,11,05,59,7.20
2011,11,11,06,00,7.20
2011,11,11,06,01,7.20
2011,11,11,06,02,7.20
2011,11,11,06,03,7.30
2011,11,11,06,04,7.30
2011,11,11,06,05,7.30
2011,11,11,06,06,7.30
2011,11,11,06,07,7.30
2011,11,11,06,08,7.30
2011,11,11,06,09,7.30
2011,11,11,06,10,7.30
2011,11,11,06,11,7.30
2011,11,11,06,12,7.30
2011,11,11,06,13,7.30
2011,11,11,06,14,7.30
2011,11,11,06,15,7.30
2011,11,11,06,16,7.40
2011,11,11,06,17,7.40
2011,11,11,06,18,7.40
2011,11,11,06,19,7.40
2011,11,11,06,20,7.40
2011,11,11,06,21,7.40
2011,11,11,06,22,7.40
2011,11,11,06,23,7.50
2011,11,11,06,24,7.50
2011,11,11,06,25,7.50
2011,11,11,06,26,7.50
2011,11,11,06,27,7.40
2011,11,11,06,28,7.40
2011,11,11,06,29,7.40
2011,11,11,06,30,7.40
2011,11,11,06,31,7.40
2011,11,11,06,32,7.40
2011,11,11,06,33,7.40
2011,11,11,06,34,7.40
2011,11,11,06,35,7.40
2011,11,11,06,36,7.40
2011,11,11,06,37,7.40
2011,11,11,06,38,7.40
2011,11,11,06,39,7.40
2011,11,11,06,40,7.40
2011,11,11,06,41,7.40
2011,11,11,06,42,7.40
2011,11,11,06,43,7.40
2011,11,11,06,44,7.40
2011,11,11,06,45,7.40
2011,11,11,06,46,7.40
2011,11,11,06,47,7.40
2011,11,11,06,48,7.40
2011,11,11,06,49,7.30
2011,11,11,06,50,7.30
2011,11,11,06,51,7.40
2011,11,11,06,52,7.40
2011,11,11,06,53,7.40
2011,11,11,06,54,7.50
2011,11,11,06,55,7.50
2011,11,11,06,56,7.50
2011,11,11,06,57,7.50
2011,11,11,06,58,7.60
2011,11,11,06,59,7.60
2011,11,11,07,00,7.60
2011,11,11,07,01,7.60
2011,11,11,07,02,7.60
2011,11,11,07,03,7.70
2011,11,11,07,04,7.70
2011,11,11,07,05,7.70
2011,11,11,07,06,7.70
2011,11,11,07,07,7.70
2011,11,11,07,08,7.70
2011,11,11,07,09,7.70
2011,11,11,07,10,7.70
2011,11,11,07,11,7.70
2011,11,11,07,12,7.70
2011,11,11,07,13,7.70
2011,11,11,07,14,7.70
2011,11,11,07,15,7.70
2011,11,11,07,16,7.70
2011,11,11,07,17,7.60
2011,11,11,07,18,7.60
2011,11,11,07,19,7.60
2011,11,11,07,20,7.60
2011,11,11,07,21,7.70
2011,11,11,07,22,7.70
2011,11,11,07,23,7.70
2011,11,11,07,24,7.80
2011,11,11,07,25,7.80
2011,11,11,07,26,7.80
2011,11,11,07,27,7.80
2011,11,11,07,28,7.80
2011,11,11,07,29,7.80
2011,11,11,07,30,7.90
2011,11,11,07,31,7.90
2011,11,11,07,32,7.90
2011,11,11,07,33,8.00
2011,11,11,07,34,8.00
2011,11,11,07,35,8.10
2011,11,11,07,36,8.10
2011,11,11,07,37,8.10
2011,11,11,07,38,8.10
2011,11,11,07,39,8.10
2011,11,11,07,40,8.10
2011,11,11,07,41,8.10
2011,11,11,07,42,8.10
2011,11,11,07,43,8.10
2011,11,11,07,44,8.10
2011,11,11,07,45,8.20
2011,11,11,07,46,8.20
2011,11,11,07,47,8.20
2011,11,11,07,48,8.20
2011,11,11,07,49,8.20
2011,11,11,07,50,8.20
2011,11,11,07,51,8.20
2011,11,11,07,52,8.30
2011,11,11,07,53,8.30
2011,11,11,07,54,8.30
2011,11,11,07,55,8.30
2011,11,11,07,56,8.30
2011,11,11,07,57,8.30
2011,11,11,07,58,8.30
2011,11,11,07,59,8.30
2011,11,11,08,00,8.30
2011,11,11,08,01,8.30
2011,11,11,08,02,8.30
2011,11,11,08,03,8.30
2011,11,11,08,04,8.30
2011,11,11,08,05,8.40
2011,11,11,08,06,8.40
2011,11,11,08,07,8.40
2011,11,11,08,08,8.40
2011,11,11,08,09,8.40
2011,11,11,08,10,8.40
2011,11,11,08,11,8.40
2011,11,11,08,12,8.40
2011,11,11,08,13,8.40
2011,11,11,08,14,8.40
2011,11,11,08,15,8.40
2011,11,11,08,16,8.30
2011,11,11,08,17,8.30
2011,11,11,08,18,8.30
2011,11,11,08,19,8.30
2011,11,11,08,20,8.30
2011,11,11,08,21,8.30
2011,11,11,08,22,8.20
2011,11,11,08,23,8.20
2011,11,11,08,24,8.20
2011,11,11,08,25,8.20
2011,11,11,08,26,8.10
2011,11,11,08,27,8.10
2011,11,11,08,28,8.10
2011,11,11,08,29,8.00
2011,11,11,08,30,8.00
2011,11,11,08,31,8.00
2011,11,11,08,32,8.00
2011,11,11,08,33,7.90
2011,11,11,08,34,7.90
2011,11,11,08,35,7.90
2011,11,11,08,36,7.90
2011,11,11,08,37,7.90
2011,11,11,08,38,7.90
2011,11,11,08,39,7.90
2011,11,11,08,40,7.90
2011,11,11,08,41,7.90
2011,11,11,08,42,7.90
2011,11,11,08,43,7.90
2011,11,11,08,44,7.90
2011,11,11,08,45,7.90
2011,11,11,08,46,7.90
2011,11,11,08,47,7.90
2011,11,11,08,48,7.90
2011,11,11,08,49,7.90
2011,11,11,08,50,7.90
2011,11,11,08,51,7.90
2011,11,11,08,52,7.90
2011,11,11,08,53,7.90
2011,11,11,08,54,7.90
2011,11,11,08,55,8.00
2011,11,11,08,56,8.00
2011,11,11,08,57,8.00
2011,11,11,08,58,8.10
2011,11,11,08,59,8.10
2011,11,11,09,00,8.10
2011,11,11,09,01,8.10
2011,11,11,09,02,8.10
2011,11,11,09,03,8.20
2011,11,11,09,04,8.20
2011,11,11,09,05,8.20
2011,11,11,09,06,8.20
2011,11,11,09,07,8.20
2011,11,11,09,08,8.20
2011,11,11,09,09,8.20
2011,11,11,09,10,8.20
2011,11,11,09,11,8.20
2011,11,11,09,12,8.30
2011,11,11,09,13,8.30
2011,11,11,09,14,8.30
2011,11,11,09,15,8.30
2011,11,11,09,16,8.30
2011,11,11,09,17,8.30
2011,11,11,09,18,8.30
2011,11,11,09,19,8.30
2011,11,11,09,20,8.30
2011,11,11,09,21,8.30
2011,11,11,09,22,8.30
2011,11,11,09,23,8.30
2011,11,11,09,24,8.30
2011,11,11,09,25,8.30
2011,11,11,09,26,8.30
2011,11,11,09,27,8.30
2011,11,11,09,28,8.30
2011,11,11,09,29,8.30
2011,11,11,09,30,8.30
2011,11,11,09,31,8.30
2011,11,11,09,32,8.20
2011,11,11,09,33,8.20
2011,11,11,09,34,8.20
2011,11,11,09,35,8.30
2011,11,11,09,36,8.30
2011,11,11,09,37,8.40
2011,11,11,09,38,8.40
2011,11,11,09,39,8.50
2011,11,11,09,40,8.50
2011,11,11,09,41,8.50
2011,11,11,09,42,8.50
2011,11,11,09,43,8.50
2011,11,11,09,44,8.40
2011,11,11,09,45,8.40
2011,11,11,09,46,8.40
2011,11,11,09,47,8.40
2011,11,11,09,48,8.40
2011,11,11,09,49,8.50
2011,11,11,09,50,8.50
2011,11,11,09,51,8.50
2011,11,11,09,52,8.60
2011,11,11,09,53,8.60
2011,11,11,09,54,8.60
2011,11,11,09,55,8.60
2011,11,11,09,56,8.70
2011,11,11,09,57,8.80
2011,11,11,09,58,8.90
2011,11,11,09,59,9.00
2011,11,11,10,00,9.10
2011,11,11,10,01,9.20
2011,11,11,10,02,9.20
2011,11,11,10,03,9.30
2011,11,11,10,04,9.30
2011,11,11,10,05,9.30
2011,11,11,10,06,9.20
2011,11,11,10,07,9.20
2011,11,11,10,08,9.20
2011,11,11,10,09,9.20
2011,11,11,10,10,9.20
2011,11,11,10,11,9.20
2011,11,11,10,12,9.20
2011,11,11,10,13,9.20
2011,11,11,10,14,9.20
2011,11,11,10,15,9.20
2011,11,11,10,16,9.10
2011,11,11,10,17,9.10
2011,11,11,10,18,9.00
2011,11,11,10,19,9.00
2011,11,11,10,20,8.90
2011,11,11,10,21,8.90
2011,11,11,10,22,8.90
2011,11,11,10,23,8.80
2011,11,11,10,24,8.80
2011,11,11,10,25,8.80
2011,11,11,10,26,8.80
2011,11,11,10,27,8.80
2011,11,11,10,28,8.80
2011,11,11,10,29,8.80
2011,11,11,10,30,8.80
2011,11,11,10,31,8.80
2011,11,11,10,32,8.80
2011,11,11,10,33,8.80
2011,11,11,10,34,8.90
2011,11,11,10,35,8.90
2011,11,11,10,36,8.90
2011,11,11,10,37,8.90
2011,11,11,10,38,9.00
2011,11,11,10,39,9.00
2011,11,11,10,40,9.00
2011,11,11,10,41,9.00
2011,11,11,10,42,9.00
2011,11,11,10,43,9.00
2011,11,11,10,44,9.00
2011,11,11,10,45,9.00
2011,11,11,10,46,9.00
2011,11,11,10,47,9.00
2011,11,11,10,48,9.00
2011,11,11,10,49,9.10
2011,11,11,10,50,9.10
2011,11,11,10,51,9.10
2011,11,11,10,52,9.10
2011,11,11,10,53,9.10
2011,11,11,10,54,9.10
2011,11,11,10,55,9.20
2011,11,11,10,56,9.20
2011,11,11,10,57,9.30
2011,11,11,10,58,9.30
2011,11,11,10,59,9.40
2011,11,11,11,00,9.50
2011,11,11,11,01,9.60
2011,11,11,11,02,9.60
2011,11,11,11,03,9.60
2011,11,11,11,04,9.60
2011,11,11,11,05,9.60
2011,11,11,11,06,9.60
2011,11,11,11,07,9.60
2011,11,11,11,08,9.70
2011,11,11,11,09,9.70
2011,11,11,11,10,9.70
2011,11,11,11,11,9.70
2011,11,11,11,12,9.80
2011,11,11,11,13,9.80
2011,11,11,11,14,9.80
2011,11,11,11,15,9.80
2011,11,11,11,16,9.80
2011,11,11,11,17,9.80
2011,11,11,11,18,9.70
2011,11,11,11,19,9.70
2011,11,11,11,20,9.70
2011,11,11,11,21,9.70
2011,11,11,11,22,9.80
2011,11,11,11,23,9.80
2011,11,11,11,24,9.80
2011,11,11,11,25,9.90
2011,11,11,11,26,10.00
2011,11,11,11,27,10.10
2011,11,11,11,28,10.20
2011,11,11,11,29,10.30
2011,11,11,11,30,10.40
2011,11,11,11,31,10.50
2011,11,11,11,32,10.60
2011,11,11,11,33,10.60
2011,11,11,11,34,10.70
2011,11,11,11,35,10.80
2011,11,11,11,36,10.80
2011,11,11,11,37,10.80
2011,11,11,11,38,10.80
2011,11,11,11,39,10.80
2011,11,11,11,40,10.90
2011,11,11,11,41,10.90
2011,11,11,11,42,10.90
2011,11,11,11,43,11.00
2011,11,11,11,44,11.00
2011,11,11,11,45,11.10
2011,11,11,11,46,11.10
2011,11,11,11,47,11.10
2011,11,11,11,48,11.10
2011,11,11,11,49,11.10
2011,11,11,11,50,11.10
2011,11,11,11,51,11.10
2011,11,11,11,52,11.10
2011,11,11,11,53,11.00
2011,11,11,11,54,11.00
2011,11,11,11,55,11.00
2011,11,11,11,56,11.00
2011,11,11,11,57,11.10
2011,11,11,11,58,11.10
2011,11,11,11,59,11.10
2011,11,11,12,00,11.10
2011,11,11,12,01,11.20
2011,11,11,12,02,11.20
2011,11,11,12,03,11.20
2011,11,11,12,04,11.20
2011,11,11,12,05,11.10
2011,11,11,12,06,11.00
2011,11,11,12,07,11.00
2011,11,11,12,08,10.90
2011,11,11,12,09,10.80
2011,11,11,12,10,10.80
2011,11,11,12,11,10.80
2011,11,11,12,12,10.80
2011,11,11,12,13,10.80
2011,11,11,12,14,10.80
2011,11,11,12,15,10.90
2011,11,11,12,16,11.00
2011,11,11,12,17,11.00
2011,11,11,12,18,11.00
2011,11,11,12,19,11.10
2011,11,11,12,20,11.10
2011,11,11,12,21,11.10
2011,11,11,12,22,11.00
2011,11,11,12,23,10.90
2011,11,11,12,24,10.80
2011,11,11,12,25,10.80
2011,11,11,12,26,10.70
2011,11,11,12,27,10.60
2011,11,11,12,28,10.50
2011,11,11,12,29,10.40
2011,11,11,12,30,10.30
2011,11,11,12,31,10.30
2011,11,11,12,32,10.20
2011,11,11,12,33,10.20
2011,11,11,12,34,10.10
2011,11,11,12,35,10.10
2011,11,11,12,36,10.00
2011,11,11,12,37,10.00
2011,11,11,12,38,9.90
2011,11,11,12,39,9.60
2011,11,11,12,40,9.00
2011,11,11,12,41,8.40
2011,11,11,12,42,7.80
2011,11,11,12,43,7.40
2011,11,11,12,44,7.10
2011,11,11,12,45,6.80
2011,11,11,12,46,6.50
2011,11,11,12,47,6.20
2011,11,11,14,37,4.60
2011,11,11,14,38,4.60
2011,11,11,14,39,4.70
2011,11,11,14,40,4.60
2011,11,11,14,41,4.60
2011,11,11,14,42,4.60
2011,11,11,14,43,4.60
2011,11,11,14,44,4.70
2011,11,11,14,45,4.70
2011,11,11,14,46,4.70
2011,11,11,14,47,4.70
2011,11,11,14,48,4.70
2011,11,11,14,49,4.70
2011,11,11,14,50,4.70
2011,11,11,14,51,4.80
2011,11,11,14,52,4.80
2011,11,11,14,53,4.80
2011,11,11,14,54,4.90
2011,11,11,14,55,4.90
2011,11,11,14,56,4.90
2011,11,11,14,57,4.90
2011,11,11,14,58,4.90
2011,11,11,14,59,4.90
2011,11,11,15,00,4.90
2011,11,11,15,01,4.90
2011,11,11,15,02,4.90
2011,11,11,15,03,4.90
2011,11,11,15,04,4.90
2011,11,11,15,05,4.90
2011,11,11,15,06,4.90
2011,11,11,15,07,4.90
2011,11,11,15,08,4.90
2011,11,11,15,09,4.90
2011,11,11,15,10,4.90
2011,11,11,15,11,4.90
2011,11,11,15,12,4.90
2011,11,11,15,13,4.90
2011,11,11,15,14,5.00
2011,11,11,15,15,5.00
2011,11,11,15,16,5.10
2011,11,11,15,17,5.10
2011,11,11,15,18,5.10
2011,11,11,15,19,5.10
2011,11,11,15,20,5.10
2011,11,11,15,21,5.10
2011,11,11,15,22,5.10
2011,11,11,15,23,5.10
2011,11,11,15,24,5.20
2011,11,11,15,25,5.20
2011,11,11,15,26,5.30
2011,11,11,15,27,5.30
2011,11,11,15,28,5.30
2011,11,11,15,29,5.30
2011,11,11,15,30,5.30
2011,11,11,15,31,5.30
2011,11,11,15,32,5.30
2011,11,11,15,33,5.30
2011,11,11,15,34,5.30
2011,11,11,15,35,5.20
2011,11,11,15,36,5.20
2011,11,11,15,37,5.10
2011,11,11,15,38,5.10
2011,11,11,15,39,5.00
2011,11,11,15,40,5.00
2011,11,11,15,41,4.90
2011,11,11,15,42,4.80
2011,11,11,15,43,4.70
2011,11,11,15,44,4.60
2011,11,11,15,45,4.50
2011,11,11,15,46,4.40
2011,11,11,15,47,4.30
2011,11,11,15,48,4.30
2011,11,11,15,49,4.20
2011,11,11,15,50,4.20
2011,11,11,15,51,4.20
2011,11,11,15,52,4.10
2011,11,11,15,53,4.10
2011,11,11,15,54,4.10
2011,11,11,15,55,4.00
2011,11,11,15,56,4.00
2011,11,11,15,57,3.90
2011,11,11,15,58,3.90
2011,11,11,15,59,3.90
2011,11,11,16,00,3.90
2011,11,11,16,01,3.90
2011,11,11,16,02,3.90
2011,11,11,16,03,3.90
2011,11,11,16,04,3.90
2011,11,11,16,05,3.90
2011,11,11,16,06,3.90
2011,11,11,16,07,4.00
2011,11,11,16,08,4.00
2011,11,11,16,09,4.10
2011,11,11,16,10,4.10
2011,11,11,16,11,4.10
2011,11,11,16,12,4.10
2011,11,11,16,13,4.10
2011,11,11,16,14,4.10
2011,11,11,16,15,4.10
2011,11,11,16,16,4.20
2011,11,11,16,17,4.20
2011,11,11,16,18,4.30
2011,11,11,16,19,4.30
2011,11,11,16,20,4.30
2011,11,11,16,21,4.30
2011,11,11,16,22,4.30
2011,11,11,16,23,4.30
2011,11,11,16,24,4.30
2011,11,11,16,25,4.30
2011,11,11,16,26,4.30
2011,11,11,16,27,4.20
2011,11,11,16,28,4.20
2011,11,11,16,29,4.20
2011,11,11,16,30,4.20
2011,11,11,16,31,4.10
2011,11,11,16,32,4.10
2011,11,11,16,33,4.10
2011,11,11,16,34,4.00
2011,11,11,16,35,4.00
2011,11,11,16,36,4.00
2011,11,11,16,37,3.90
2011,11,11,16,38,3.90
2011,11,11,16,39,3.90
2011,11,11,16,40,3.80
2011,11,11,16,41,3.80
2011,11,11,16,42,3.80
2011,11,11,16,43,3.80
2011,11,11,16,44,3.80
2011,11,11,16,45,3.70
2011,11,11,16,46,3.70
2011,11,11,16,47,3.70
2011,11,11,16,48,3.70
2011,11,11,16,49,3.70
2011,11,11,16,50,3.70
2011,11,11,16,51,3.70
2011,11,11,16,52,3.70
2011,11,11,16,53,3.70
2011,11,11,16,54,3.70
2011,11,11,16,55,3.70
2011,11,11,16,56,3.70
2011,11,11,16,57,3.70
2011,11,11,16,58,3.70
2011,11,11,16,59,3.70
2011,11,11,17,00,3.80
2011,11,11,17,01,3.80
2011,11,11,17,02,3.90
2011,11,11,17,03,3.90
2011,11,11,17,04,4.00
2011,11,11,17,05,4.00
2011,11,11,17,06,4.10
2011,11,11,17,07,4.20
2011,11,11,17,08,4.30
2011,11,11,17,09,4.30
2011,11,11,17,10,4.30
2011,11,11,17,11,4.30
2011,11,11,17,12,4.30
2011,11,11,17,13,4.30
2011,11,11,17,14,4.20
2011,11,11,17,15,4.30
2011,11,11,17,16,4.30
2011,11,11,17,17,4.30
2011,11,11,17,18,4.40
2011,11,11,17,19,4.40
2011,11,11,17,20,4.40
2011,11,11,17,21,4.40
2011,11,11,17,22,4.40
2011,11,11,17,23,4.50
2011,11,11,17,24,4.50
2011,11,11,17,25,4.50
2011,11,11,17,26,4.60
2011,11,11,17,27,4.60
2011,11,11,17,28,4.60
2011,11,11,17,29,4.70
2011,11,11,17,30,4.70
2011,11,11,17,31,4.70
2011,11,11,17,32,4.70
2011,11,11,17,33,4.70
2011,11,11,17,34,4.70
2011,11,11,17,35,4.80
2011,11,11,17,36,4.90
2011,11,11,17,37,5.00
2011,11,11,17,38,5.10
2011,11,11,17,39,5.20
2011,11,11,17,40,5.30
2011,11,11,17,41,5.40
2011,11,11,17,42,5.40
2011,11,11,17,43,5.30
2011,11,11,17,44,5.30
2011,11,11,17,45,5.10
2011,11,11,17,46,5.00
2011,11,11,17,47,4.80
2011,11,11,17,48,4.80
2011,11,11,17,49,4.70
2011,11,11,17,50,4.70
2011,11,11,17,51,4.60
2011,11,11,17,52,4.60
2011,11,11,17,53,4.60
2011,11,11,17,54,4.70
2011,11,11,17,55,4.80
2011,11,11,17,56,4.90
2011,11,11,17,57,5.00
2011,11,11,17,58,5.10
2011,11,11,17,59,5.10
2011,11,11,18,00,5.00
2011,11,11,18,01,5.00
2011,11,11,18,02,5.10
2011,11,11,18,03,5.10
2011,11,11,18,04,5.20
2011,11,11,18,05,5.20
2011,11,11,18,06,5.20
2011,11,11,18,07,5.20
2011,11,11,18,08,5.20
2011,11,11,18,09,5.20
2011,11,11,18,10,5.30
2011,11,11,18,11,5.50
2011,11,11,18,12,5.50
2011,11,11,18,13,5.60
2011,11,11,18,14,5.60
2011,11,11,18,15,5.70
2011,11,11,18,16,5.70
2011,11,11,18,17,5.70
2011,11,11,18,18,5.70
2011,11,11,18,19,5.70
2011,11,11,18,20,5.70
2011,11,11,18,21,5.80
2011,11,11,18,22,5.90
2011,11,11,18,23,5.90
2011,11,11,18,24,6.00
2011,11,11,18,25,6.10
2011,11,11,18,26,6.00
2011,11,11,18,27,5.90
2011,11,11,18,28,5.90
2011,11,11,18,29,5.90
2011,11,11,18,30,5.90
2011,11,11,18,31,5.90
2011,11,11,18,32,5.90
2011,11,11,18,33,5.90
2011,11,11,18,34,5.90
2011,11,11,18,35,5.90
2011,11,11,18,36,5.90
2011,11,11,18,37,5.90
2011,11,11,18,38,5.90
2011,11,11,18,39,5.90
2011,11,11,18,40,6.00
2011,11,11,18,41,6.00
2011,11,11,18,42,6.00
2011,11,11,18,43,6.10
2011,11,11,18,44,6.10
2011,11,11,18,45,6.10
2011,11,11,18,46,6.20
2011,11,11,18,47,6.20
2011,11,11,18,48,6.20
2011,11,11,18,49,6.40
2011,11,11,18,50,6.50
2011,11,11,18,51,6.50
2011,11,11,18,52,6.60
2011,11,11,18,53,6.60
2011,11,11,18,54,6.60
2011,11,11,18,55,6.60
2011,11,11,18,56,6.60
2011,11,11,18,57,6.60
2011,11,11,18,58,6.70
2011,11,11,18,59,6.70
2011,11,11,19,00,6.70
2011,11,11,19,01,6.60
2011,11,11,19,02,6.60
2011,11,11,19,03,6.50
2011,11,11,19,04,6.60
2011,11,11,19,05,6.50
2011,11,11,19,06,6.40
2011,11,11,19,07,6.30
2011,11,11,19,08,6.20
2011,11,11,19,09,6.10
2011,11,11,19,10,6.00
2011,11,11,19,11,6.00
2011,11,11,19,12,5.90
2011,11,11,19,13,5.90
2011,11,11,19,14,5.90
2011,11,11,19,15,6.00
2011,11,11,19,16,5.90
2011,11,11,19,17,5.90
2011,11,11,19,18,5.90
2011,11,11,19,19,6.00
2011,11,11,19,20,6.00
2011,11,11,19,21,6.00
2011,11,11,19,22,6.10
2011,11,11,19,23,6.10
2011,11,11,19,24,6.10
2011,11,11,19,25,6.10
2011,11,11,19,26,6.10
2011,11,11,19,27,6.10
2011,11,11,19,28,6.10
2011,11,11,19,29,6.10
2011,11,11,19,30,6.10
2011,11,11,19,31,6.10
2011,11,11,19,32,6.10
2011,11,11,19,33,6.10
2011,11,11,19,34,6.10
2011,11,11,19,35,6.00
2011,11,11,19,36,6.00
2011,11,11,19,37,5.90
2011,11,11,19,38,6.00
2011,11,11,19,39,6.00
2011,11,11,19,40,6.00
2011,11,11,19,41,6.00
2011,11,11,19,42,6.00
2011,11,11,19,43,6.10
2011,11,11,19,44,6.10
2011,11,11,19,45,6.10
2011,11,11,19,46,6.10
2011,11,11,19,47,6.10
2011,11,11,19,48,6.10
2011,11,11,19,49,6.10
2011,11,11,19,50,6.00
2011,11,11,19,51,6.00
2011,11,11,19,52,6.00